This is the latest recevied weather packets stored in our database for station/object KN6ZYR. If no packets are shown the sender has not sent any weather packets the latest 10 day(s).
| Time | Temp. | Humidity | Pressure | Rain* | Wind** | Luminosity | Snow |
|---|---|---|---|---|---|---|---|
| 1777912613 | 17.78° C | 35% | 1013.3 hPa | 0 mm | - | 527 W/m² | - |
| 1777912309 | 17.78° C | 35% | 1013.6 hPa | 0 mm | - | 523 W/m² | - |
| 1777912005 | 17.22° C | 35% | 1013.6 hPa | 0 mm | - | 501 W/m² | - |
| 1777911701 | 17.78° C | 35% | 1013.6 hPa | 0 mm | - | 377 W/m² | - |
| 1777911398 | 17.78° C | 37% | 1013.8 hPa | 0 mm | - | 471 W/m² | - |
| 1777911096 | 16.67° C | 37% | 1013.9 hPa | 0 mm | - | 460 W/m² | - |
| 1777910793 | 16.67° C | 38% | 1013.8 hPa | 0 mm | - | 455 W/m² | - |
| 1777910489 | 16.67° C | 38% | 1013.9 hPa | 0 mm | - | 435 W/m² | - |
| 1777910186 | 16.67° C | 40% | 1013.9 hPa | 0 mm | - | 420 W/m² | - |
| 1777909883 | 15.56° C | 41% | 1013.8 hPa | 0 mm | - | 403 W/m² | - |
| 1777909580 | 15.56° C | 41% | 1014 hPa | 0 mm | - | 104 W/m² | - |
| 1777909277 | 14.44° C | 43% | 1014 hPa | 0 mm | - | 375 W/m² | - |
| 1777908975 | 14.44° C | 44% | 1014 hPa | 0 mm | - | 66 W/m² | - |
| 1777908674 | 14.44° C | 44% | 1014.2 hPa | 0 mm | - | 75 W/m² | - |
| 1777908370 | 13.89° C | 45% | 1014.1 hPa | 0 mm | - | 331 W/m² | - |
| 1777908066 | 13.89° C | 46% | 1014.1 hPa | 0 mm | - | 56 W/m² | - |
| 1777907762 | 13.33° C | 45% | 1014.3 hPa | 0 mm | - | 303 W/m² | - |
| 1777907456 | 13.33° C | 47% | 1014.1 hPa | 0 mm | - | 191 W/m² | - |
| 1777907154 | 12.78° C | 48% | 1014.2 hPa | 0 mm | - | 74 W/m² | - |
| 1777906851 | 12.78° C | 48% | 1014.1 hPa | 0 mm | - | 108 W/m² | - |
| 1777906549 | 12.78° C | 48% | 1014.2 hPa | 0 mm | - | 245 W/m² | - |
| 1777906244 | 12.78° C | 49% | 1014.6 hPa | 0 mm | - | 197 W/m² | - |
| 1777905941 | 12.22° C | 51% | 1014.3 hPa | 0 mm | - | 206 W/m² | - |
| 1777905637 | 11.11° C | 55% | 1014.3 hPa | 0 mm | - | 191 W/m² | - |
| 1777905334 | 10.56° C | 57% | 1014.3 hPa | 0 mm | - | 179 W/m² | - |
* Rain latest hour (hover to see other rain measurements)
** Current wind speed in m/s (hover to see current wind gust speed)